Showing default

LUNA-2, 68470

Orbit data source: Space-Track

LUNA-2, 68470 is a Turkish payload satellite in SSO that was launched on Mon, 30 Mar 2026 UTC via an FALCON 9 launch vehicle from the Air Force Western Test Range (AFWTR). Payload-class satellites include a variety of spacecraft equipped with specific instruments for various scientific and technological missions. These include communications satellites like Starlink; space stations such as the ISS; scientific satellites like the Hubble; Earth observation satellites from companies like Planet Labs, Umbra, and HawkEye 360; GPS; miniature CubeSats for education and research; and military/defense satellites.

Loading next visibility...
Identifier
68470, 2026-067BG
Orbit
SSO
Country
Flag of TRTR / TURK
Related business
None
Manufacturer
Unknown
Mission
Operational spacecraft
Bus & Motor
Unknown
Mass
Unknown
Launch date (UTC)
2026-03-30 (3 months ago)
Launch vehicle
FALCON 9
Launch site
Air Force Western Test Range (AFWTR)
Object type
Payload
Rocket body
Debris
Shape & HBR
Unknown shape, 0.2 m
Radar Cross Section
Medium (>0.1 m² and <1 m²)

Expand to show TLE details & history
Last TLE update: 1 day ago

TLE from 1 day ago
0 LUNA-2
1 68470U 26067BG  26171.42753731  .00004773  00000-0  24157-3 0  9998
2 68470  97.4479 129.6452 0008724  65.1489 295.0650 15.17459084 12420
Epoch: 2026-06-20T10:15Z
TLE epoch observation values (Epoch: 2026-06-20T10:15:39.223Z)
Latitude
-0.00011°
Longitude
67.08947°
Altitude
514.065 km
Speed
7.608 km/s
True Right ascension
08h 38m 34s
True Declination
0° 00' 00"
Sunlit
Object was in daylight at epoch
Visualization orbit readout
Latitude
Unknown
Longitude
Unknown
Altitude
Unknown
Speed
Unknown
Apparent Right ascension
Unknown
Apparent Declination
Unknown
Sunlit
N/A
Visualization observer readout
Local Sidereal Time
09:13:29
Azimuth
Unknown
Elevation
Unknown
Doppler factor
Unknown
Orbital elements
Apogee altitude
516.504 km
Perigee altitude
504.484 km
Semi-major axis
6,888.631 km
Eccentricity
0.00087
Inclination
97.4479°
RAAN
129.6452°
Arg. of periapsis
65.1489°
True anomaly
294.9744°
Mean anomaly
295.065°
Eccentric anomaly
295.01971°
Mean motion
3.79615 °/min
Orbital period
94.83 mins
BSTAR
0.00024157
Loading maneuver chart data...
Computing Atmospheric mass density...
Loading historical data...
Loading historical data...
Loading historical data...
Loading historical data...
Loading historical data...
Loading historical data...
Loading historical data...

Documentation

Showing up to 5 results
|